When you browse on this site, cookies collect data to enhance your experience and personalize the content and advertising you see.
Visit our Privacy Policy to learn more. By continuing to use the site, you agree to this use of cookies and data.
  • în România
  • Lista ţărilor
  • Pe 7 zile
  • Temperatura apei
  • Hartă satelitară
  • Meteo pe hartă
  • Widget-uri
  • user-avatar
    Intrare

    Meteo pe oră la Uige

    Astăzi, 17 Iunie, Luni

    Timp Temperatura Precipitaţii Vânt Presiune Umiditate
    00:00 +21°C° 0 mm 1 m/s 693 mmHg 65%
    01:00 +20°C° 0 mm 1 m/s 693 mmHg 72%
    02:00 +20°C° 0 mm 1 m/s 693 mmHg 73%
    03:00 +19°C° 0 mm 1 m/s 693 mmHg 73%
    04:00 +19°C° 0 mm 1 m/s 692 mmHg 74%
    05:00 +19°C° 0 mm 1 m/s 693 mmHg 73%
    06:00 +19°C° 0 mm 1 m/s 694 mmHg 72%
    07:00 +20°C° 0 mm 1 m/s 694 mmHg 71%
    08:00 +24°C° 0 mm 1 m/s 695 mmHg 59%
    09:00 +27°C° 0 mm 1 m/s 695 mmHg 48%
    10:00 +30°C° 0 mm 1 m/s 696 mmHg 37%
    11:00 +32°C° 0 mm 1 m/s 695 mmHg 32%
    12:00 +33°C° 0 mm 1 m/s 695 mmHg 28%
    13:00 +35°C° 0 mm 1 m/s 694 mmHg 24%
    14:00 +34°C° 0 mm 1 m/s 694 mmHg 24%
    15:00 +34°C° 0 mm 1 m/s 693 mmHg 25%
    16:00 +33°C° 0 mm 1 m/s 692 mmHg 25%
    17:00 +30°C° 0 mm 1 m/s 692 mmHg 34%
    18:00 +27°C° 0 mm 1 m/s 692 mmHg 42%
    19:00 +21°C° 0 mm 0 m/s 692 mmHg 51%
    20:00 +21°C° 0 mm 0 m/s 692 mmHg 53%
    21:00 +20°C° 0 mm 0 m/s 693 mmHg 55%
    22:00 +21°C° 0 mm 1 m/s 693 mmHg 57%
    23:00 +21°C° 0 mm 1 m/s 693 mmHg 59%

    Mâine, 18 Iunie, Marţi

    Timp Temperatura Precipitaţii Vânt Presiune Umiditate
    00:00 +20°C° 0 mm 1 m/s 693 mmHg 60%
    01:00 +20°C° 0 mm 1 m/s 693 mmHg 62%
    02:00 +20°C° 0 mm 1 m/s 692 mmHg 61%
    03:00 +19°C° 0 mm 1 m/s 692 mmHg 59%
    04:00 +19°C° 0 mm 1 m/s 692 mmHg 58%
    05:00 +19°C° 0 mm 1 m/s 692 mmHg 55%
    06:00 +20°C° 0 mm 1 m/s 693 mmHg 53%
    07:00 +20°C° 0 mm 1 m/s 693 mmHg 50%
    08:00 +24°C° 0 mm 2 m/s 694 mmHg 42%
    09:00 +27°C° 0 mm 2 m/s 694 mmHg 34%
    10:00 +31°C° 0 mm 2 m/s 695 mmHg 26%
    11:00 +32°C° 0 mm 2 m/s 695 mmHg 23%
    12:00 +35°C° 0 mm 2 m/s 694 mmHg 21%
    13:00 +35°C° 0 mm 1 m/s 694 mmHg 18%
    14:00 +35°C° 0 mm 1 m/s 693 mmHg 19%
    15:00 +34°C° 0 mm 1 m/s 693 mmHg 20%
    16:00 +34°C° 0 mm 1 m/s 692 mmHg 21%
    17:00 +28°C° 0 mm 0 m/s 692 mmHg 29%
    18:00 +25°C° 0 mm 0 m/s 692 mmHg 37%
    19:00 +21°C° 0 mm 0 m/s 692 mmHg 46%
    20:00 +21°C° 0 mm 0 m/s 692 mmHg 48%
    21:00 +20°C° 0 mm 0 m/s 693 mmHg 50%
    22:00 +22°C° 0 mm 1 m/s 693 mmHg 52%
    23:00 +19°C° 0 mm 0 m/s 693 mmHg 55%

    Poimâine, 19 Iunie, Miercuri

    Timp Temperatura Precipitaţii Vânt Presiune Umiditate
    00:00 +18°C° 0 mm 0 m/s 693 mmHg 58%
    01:00 +18°C° 0 mm 0 m/s 692 mmHg 60%
    02:00 +20°C° 0 mm 1 m/s 692 mmHg 61%
    03:00 +19°C° 0 mm 1 m/s 692 mmHg 61%
    04:00 +19°C° 0 mm 1 m/s 692 mmHg 62%
    05:00 +19°C° 0 mm 1 m/s 692 mmHg 60%
    06:00 +20°C° 0 mm 1 m/s 693 mmHg 59%
    07:00 +20°C° 0 mm 1 m/s 693 mmHg 58%
    08:00 +24°C° 0 mm 1 m/s 694 mmHg 48%
    09:00 +27°C° 0 mm 2 m/s 694 mmHg 38%
    10:00 +31°C° 0 mm 2 m/s 695 mmHg 27%
    11:00 +32°C° 0 mm 1 m/s 695 mmHg 25%
    12:00 +34°C° 0 mm 1 m/s 694 mmHg 22%
    13:00 +36°C° 0 mm 1 m/s 694 mmHg 20%
    14:00 +35°C° 0 mm 1 m/s 693 mmHg 20%
    15:00 +34°C° 0 mm 1 m/s 693 mmHg 21%
    16:00 +34°C° 0 mm 1 m/s 692 mmHg 21%
    17:00 +31°C° 0 mm 1 m/s 692 mmHg 28%
    18:00 +27°C° 0 mm 1 m/s 692 mmHg 35%
    19:00 +24°C° 0 mm 1 m/s 692 mmHg 42%
    20:00 +24°C° 0 mm 1 m/s 692 mmHg 44%
    21:00 +23°C° 0 mm 1 m/s 693 mmHg 45%
    22:00 +22°C° 0 mm 1 m/s 693 mmHg 47%
    23:00 +22°C° 0 mm 1 m/s 693 mmHg 49%

    20 Iunie, Joi

    Timp Temperatura Precipitaţii Vânt Presiune Umiditate
    00:00 +21°C° 0 mm 1 m/s 693 mmHg 50%
    01:00 +20°C° 0 mm 1 m/s 693 mmHg 52%
    02:00 +20°C° 0 mm 1 m/s 693 mmHg 54%
    03:00 +20°C° 0 mm 1 m/s 692 mmHg 57%
    04:00 +20°C° 0 mm 1 m/s 692 mmHg 59%
    05:00 +20°C° 0 mm 1 m/s 692 mmHg 58%
    06:00 +20°C° 0 mm 1 m/s 693 mmHg 57%
    07:00 +20°C° 0 mm 1 m/s 693 mmHg 56%
    08:00 +24°C° 0 mm 2 m/s 694 mmHg 46%
    09:00 +28°C° 0 mm 2 m/s 694 mmHg 36%
    10:00 +31°C° 0 mm 2 m/s 695 mmHg 27%
    11:00 +34°C° 0 mm 2 m/s 695 mmHg 24%
    12:00 +35°C° 0 mm 2 m/s 694 mmHg 22%
    13:00 +36°C° 0 mm 1 m/s 694 mmHg 20%
    14:00 +35°C° 0 mm 1 m/s 693 mmHg 21%
    15:00 +35°C° 0 mm 1 m/s 692 mmHg 21%
    16:00 +34°C° 0 mm 1 m/s 692 mmHg 22%
    17:00 +29°C° 0 mm 0 m/s 692 mmHg 29%
    18:00 +26°C° 0 mm 0 m/s 692 mmHg 36%
    19:00 +22°C° 0 mm 0 m/s 692 mmHg 44%
    20:00 +22°C° 0 mm 0 m/s 692 mmHg 47%
    21:00 +21°C° 0 mm 0 m/s 693 mmHg 50%
    22:00 +20°C° 0 mm 0 m/s 693 mmHg 54%
    23:00 +19°C° 0 mm 0 m/s 693 mmHg 58%

    21 Iunie, Vineri

    Timp Temperatura Precipitaţii Vânt Presiune Umiditate
    00:00 +19°C° 0 mm 0 m/s 693 mmHg 62%
    01:00 +18°C° 0 mm 0 m/s 693 mmHg 66%
    02:00 +17°C° 0 mm 0 m/s 692 mmHg 68%
    03:00 +19°C° 0 mm 1 m/s 692 mmHg 70%
    04:00 +19°C° 0 mm 1 m/s 692 mmHg 72%
    05:00 +19°C° 0 mm 1 m/s 692 mmHg 70%
    06:00 +20°C° 0 mm 1 m/s 693 mmHg 68%
    07:00 +20°C° 0 mm 1 m/s 693 mmHg 66%
    08:00 +24°C° 0 mm 1 m/s 694 mmHg 55%
    09:00 +27°C° 0 mm 1 m/s 694 mmHg 43%
    10:00 +31°C° 0 mm 2 m/s 695 mmHg 31%
    11:00 +33°C° 0 mm 1 m/s 694 mmHg 27%
    12:00 +35°C° 0 mm 1 m/s 694 mmHg 24%
    13:00 +37°C° 0 mm 1 m/s 694 mmHg 20%
    14:00 +36°C° 0 mm 1 m/s 693 mmHg 20%
    15:00 +35°C° 0 mm 1 m/s 692 mmHg 20%
    16:00 +34°C° 0 mm 1 m/s 692 mmHg 21%
    17:00 +31°C° 0 mm 1 m/s 691 mmHg 30%
    18:00 +27°C° 0 mm 1 m/s 691 mmHg 39%
    19:00 +24°C° 0 mm 1 m/s 691 mmHg 49%
    20:00 +23°C° 0 mm 1 m/s 692 mmHg 54%
    21:00 +22°C° 0 mm 1 m/s 692 mmHg 59%
    22:00 +21°C° 0 mm 1 m/s 693 mmHg 64%
    23:00 +21°C° 0 mm 1 m/s 692 mmHg 67%

    22 Iunie, Sâmbătă

    Timp Temperatura Precipitaţii Vânt Presiune Umiditate
    00:00 +18°C° 0 mm 0 m/s 692 mmHg 71%
    01:00 +17°C° 0 mm 0 m/s 692 mmHg 74%
    02:00 +17°C° 0 mm 0 m/s 692 mmHg 77%
    03:00 +16°C° 0 mm 0 m/s 692 mmHg 80%
    04:00 +16°C° 0 mm 0 m/s 692 mmHg 84%
    05:00 +16°C° 0 mm 0 m/s 692 mmHg 82%
    06:00 +19°C° 0 mm 1 m/s 692 mmHg 81%
    07:00 +19°C° 0 mm 1 m/s 692 mmHg 80%
    08:00 +23°C° 0 mm 1 m/s 693 mmHg 66%
    09:00 +26°C° 0 mm 1 m/s 694 mmHg 52%
    10:00 +30°C° 0 mm 1 m/s 694 mmHg 38%
    11:00 +32°C° 0 mm 1 m/s 694 mmHg 33%
    12:00 +34°C° 0 mm 1 m/s 693 mmHg 28%
    13:00 +36°C° 0 mm 1 m/s 693 mmHg 23%
    14:00 +35°C° 0 mm 1 m/s 692 mmHg 24%
    15:00 +34°C° 0 mm 1 m/s 692 mmHg 24%
    16:00 +34°C° 0 mm 2 m/s 691 mmHg 25%
    17:00 +30°C° 0 mm 1 m/s 691 mmHg 34%
    18:00 +27°C° 0 mm 1 m/s 691 mmHg 44%
    19:00 +24°C° 0 mm 1 m/s 691 mmHg 53%
    20:00 +23°C° 0 mm 1 m/s 692 mmHg 57%
    21:00 +22°C° 0 mm 1 m/s 692 mmHg 62%
    22:00 +21°C° 0 mm 1 m/s 693 mmHg 66%
    23:00 +21°C° 0 mm 1 m/s 692 mmHg 70%
    Arată mai mult